Dewpoint
30 30 27 27 27 27 26 27 27 27 26 26 26 26 26 27 28 28 28 29 29 30 36 45 48 49 50 52 55 55 53 52 54 57 56 55 56 56 57 57 56 56 56 56
24 24 24 22 22 24 24 25 25 24 24 26 28 28 28 28 27 28 29 29 29 31 31 34 45 48 50 51 53 55 55 55 54 55 55 56 56 56 56 56 56 56 55 55
23 23 25 26 24 22 21 22 23 23 26 25 25 27 29 30 29 28 29 31 32 34 35 34 34 45 49 50 52 53 54 54 54 55 55 56 55 55 55 56 56 55 55 54
26 26 21 22 21 22 23 22 25 27 25 27 28 30 31 36 38 38 37 38 38 37 37 37 38 38 44 48 51 52 52 53 54 55 55 55 55 54 55 56 56 56 56 56
25 20 18 15 18 18 20 21 29 28 28 30 31 33 34 38 38 39 39 39 40 41 43 44 42 39 39 43 47 50 52 52 52 54 54 55 55 56 56 56 56 56 56 56
27 22 18 18 22 25 25 21 30 30 30 29 29 29 32 36 37 39 39 39 41 44 46 46 47 47 41 39 42 47 51 52 52 53 54 54 55 56 56 56 56 55 54 51
27 25 21 29 25 29 24 27 32 31 32 34 34 34 36 35 35 38 39 39 41 45 47 49 50 50 49 46 44 44 47 51 52 52 53 54 55 56 56 53 47 43 39 37
28 28 23 24 25 28 35 35 35 35 36 37 38 38 36 34 35 38 38 38 41 45 48 50 50 50 50 49 52 54 53 50 51 52 52 53 55 54 49 45 39 35 33 33
24 24 31 36 36 37 38 37 38 38 36 37 38 39 40 39 39 39 39 41 44 45 48 47 47 47 49 49 52 53 53 50 48 46 46 46 46 44 41 40 37 34 32 30
35 31 32 37 37 38 37 38 37 37 37 37 37 38 37 39 39 38 38 40 42 42 41 40 40 40 41 44 45 44 43 42 41 40 38 38 38 39 39 37 35 32 30 28
25 29 27 31 36 38 36 37 36 37 37 36 36 35 35 36 36 36 36 36 37 36 35 35 36 36 36 40 41 39 38 36 35 33 32 31 31 33 33 33 33 31 29 28
30 36 36 34 35 38 36 36 36 36 35 35 34 33 34 34 33 33 34 33 33 32 31 31 31 32 33 36 36 35 33 33 32 31 31 30 29 28 31 31 31 30 29 27
33 33 35 36 37 36 35 35 34 33 33 33 33 32 32 31 30 30 29 29 29 29 29 29 29 29 31 34 35 33 32 31 30 30 30 28 27 26 25 28 30 30 30 30
31 32 33 33 34 33 32 32 32 29 29 28 28 28 29 28 26 25 25 24 24 24 25 25 25 27 29 31 31 33 32 32 30 29 28 27 27 26 26 24 24 25 29 29
27 28 30 32 32 31 30 29 29 27 27 27 26 25 25 24 21 21 21 22 21 21 21 22 23 25 27 28 28 28 29 28 29 28 28 27 27 26 26 25 24 24 26 26
25 27 27 28 28 28 28 28 27 27 26 24 22 22 21 21 21 20 19 20 19 19 20 22 22 26 27 27 27 27 27 28 28 28 29 28 28 27 26 26 25 24 24 24
23 24 25 25 25 27 25 25 25 24 23 22 22 22 20 20 20 19 19 19 19 20 20 21 22 25 26 27 26 26 27 27 27 27 27 27 27 25 24 23 22 21 22 24
22 23 23 23 23 24 23 23 21 21 20 21 21 20 20 20 19 20 21 22 21 20 21 22 23 24 25 26 25 25 24 24 25 24 24 24 24 23 23 22 21 19 20 21
20 21 22 23 24 23 22 20 20 20 20 20 19 17 18 17 17 18 19 18 17 16 19 21 22 22 23 24 23 23 22 21 20 20 20 20 20 21 20 20 19 19 18 16
19 20 20 20 21 21 20 22 21 21 21 20 19 17 16 18 18 17 16 14 15 16 17 19 19 19 19 19 19 19 20 20 17 17 18 17 17 17 16 14 14 14 14 13
19 19 19 19 19 19 20 20 19 17 18 17 15 14 13 13 14 18 16 12 13 12 12 11 12 11 10 11 12 16 16 15 15 14 14 13 13 12 12 12 12 13 12 12
20 19 18 18 17 17 18 18 18 17 16 16 17 18 17 16 14 11 11 9 9 8 8 8 8 9 9 11 10 13 11 11 12 12 12 12 12 11 11 10 10 11 10 10
20 19 19 18 17 17 17 16 16 15 14 14 14 13 12 11 9 8 5 7 7 7 7 8 7 8 9 13 12 12 10 10 10 10 10 10 10 9 8 7 8 8 7 6
20 20 19 19 19 16 14 16 16 15 14 14 12 13 11 11 9 7 7 5 5 5 6 6 7 6 7 11 10 10 10 10 9 9 8 6 8 7 6 5 5 6 5 3
20 20 20 19 17 16 16 16 15 13 10 9 9 7 6 6 9 7 8 7 6 7 8 5 4 5 9 9 9 8 7 6 7 7 7 6 6 5 5 4 3 2 3 3
19 16 16 17 17 16 16 14 11 10 8 9 9 10 10 9 7 7 6 5 5 5 7 7 6 8 7 6 6 6 6 5 5 4 4 4 3 3 2 1 2 2 2 1
17 18 15 13 11 11 11 11 12 10 11 11 9 9 8 8 7 5 6 8 7 7 7 7 6 4 5 6 5 5 5 5 -0 2 3 3 3 3 1 0 1 0 0 -1
Lifted_Index
0 0 0 -0 -0 -0 -0 -0 -0 -0 -0 -0 0 1 1 1 1 1 1 1 0 -0 -1 -2 -3 -3 -3 -3 -3 -2 -2 -1 -1 -1 -1 -1 -1 -1 -1 -1 -1 -1 -0 -0
1 1 0 0 1 1 1 1 0 0 0 0 1 1 1 1 1 1 1 1 1 0 -0 -1 -2 -3 -3 -3 -3 -3 -2 -2 -2 -2 -1 -1 -1 -1 -1 -1 -1 -1 -0 -0
1 1 1 1 1 1 1 1 0 -0 0 1 2 2 2 2 2 1 1 1 1 1 0 -0 -1 -2 -3 -4 -4 -3 -3 -3 -3 -2 -2 -2 -1 -1 -1 -1 -1 -1 -1 -1
1 1 1 1 1 1 1 0 -1 -1 -0 1 1 1 1 1 1 1 1 1 1 1 1 0 -0 -1 -2 -3 -4 -4 -4 -3 -3 -3 -3 -3 -2 -2 -2 -2 -1 -1 -1 -1
2 2 2 1 1 1 1 -0 -1 -0 0 1 1 1 0 1 1 1 1 1 1 1 0 0 0 0 -0 -2 -3 -4 -4 -4 -3 -3 -3 -3 -3 -3 -2 -2 -2 -2 -2 -1
2 2 2 1 1 1 1 0 1 1 2 2 2 1 0 1 1 0 0 0 0 0 0 0 0 0 0 -1 -2 -3 -4 -4 -3 -3 -3 -3 -3 -3 -2 -2 -2 -2 -2 -1
2 2 2 1 1 1 0 0 1 2 2 2 2 1 1 1 1 0 -0 -0 -0 -0 -0 0 0 0 0 -0 -1 -2 -3 -3 -3 -3 -3 -2 -2 -2 -2 -2 -1 -2 -2 -1
1 1 1 0 0 0 0 0 1 2 2 2 1 1 1 1 0 -0 -0 -0 -0 -1 -0 1 1 0 -0 -0 -1 -1 -2 -2 -3 -3 -2 -2 -2 -1 -1 -1 -1 -1 -1 -1
1 1 0 -0 -0 0 0 1 1 1 2 2 1 1 1 0 0 0 0 0 0 0 1 1 1 0 -0 -0 -0 -0 -1 -1 -2 -2 -2 -1 -1 -1 -1 -1 -1 -1 -1 -1
0 0 -0 -0 -0 1 1 1 1 2 2 2 2 2 1 1 1 1 1 1 1 1 1 1 1 0 -0 -0 0 0 0 -0 -1 -1 -1 -1 -1 -1 -0 -0 -0 -0 -0 -0
0 0 0 0 1 1 2 2 3 3 3 3 3 2 1 1 1 1 1 1 1 1 1 1 1 1 1 0 0 0 0 0 -0 -0 -0 -0 -0 0 1 2 3 3 3 3
1 1 1 1 2 3 3 4 4 4 4 3 3 2 2 1 1 1 1 1 1 1 1 1 2 2 1 1 1 1 1 1 1 1 1 1 1 1 3 5 7 8 8 8
2 2 3 3 4 4 4 5 5 5 4 4 4 3 2 2 2 1 1 1 1 2 2 2 2 2 2 3 3 3 3 3 3 4 4 3 3 3 4 6 9 12 13 14
3 4 4 4 4 5 5 5 5 5 5 5 4 4 3 3 2 2 2 2 3 3 3 3 3 3 4 6 6 5 5 5 6 7 7 6 6 6 7 8 10 13 16 18
4 4 5 5 5 5 5 5 5 5 5 5 5 4 4 4 3 3 4 4 4 4 4 4 4 5 7 8 8 8 7 8 9 10 10 10 10 11 11 12 13 15 17 19
4 4 5 4 4 5 5 5 5 5 5 5 5 5 5 5 5 6 6 6 6 6 6 7 8 9 11 11 11 10 11 11 12 12 13 13 13 14 14 15 15 16 17 18
4 4 5 5 5 5 5 5 5 5 5 5 5 6 6 7 8 8 10 10 9 9 10 11 12 13 13 13 13 13 13 14 14 14 14 15 15 15 15 16 16 17 18 19
6 6 6 6 6 6 6 6 6 6 6 7 7 8 9 9 10 11 13 13 12 12 13 14 15 15 15 15 15 15 15 15 15 15 15 16 16 16 16 17 17 18 19 20
8 8 9 9 9 8 8 8 9 9 9 10 10 10 11 12 13 14 14 14 14 14 15 16 16 16 16 16 16 16 16 16 16 16 16 17 17 17 18 18 19 19 20 21
10 10 10 11 11 11 11 11 12 12 13 13 13 13 13 13 14 15 15 14 15 16 17 17 17 17 18 18 18 18 17 17 17 18 18 18 19 19 20 20 21 22 23 23
12 12 12 12 13 13 13 14 14 14 15 15 14 14 14 14 15 15 15 15 17 19 20 19 19 20 20 21 20 20 20 20 20 20 20 21 21 21 22 23 23 24 24 24
13 13 14 14 14 14 15 15 15 15 15 15 15 15 15 15 16 16 16 17 20 22 22 22 22 23 23 23 23 22 22 22 22 22 22 22 22 23 23 23 24 24 24 24
15 15 15 15 15 15 16 16 16 16 16 16 16 16 16 17 17 17 18 20 22 23 23 23 24 24 24 24 23 23 23 23 22 22 23 23 23 23 23 23 24 24 25 25
15 15 16 16 16 15 15 16 16 16 16 17 17 18 18 19 19 20 21 22 23 23 23 24 24 24 24 23 23 23 23 23 23 23 23 23 23 24 24 24 24 24 25 25
15 15 16 16 15 15 15 16 16 16 17 17 18 19 20 20 21 21 22 23 23 23 23 23 23 23 23 23 23 23 23 23 23 24 24 24 24 24 24 24 24 23 23 23
15 15 15 15 15 16 16 16 16 16 17 17 18 19 20 21 21 21 22 22 22 22 22 23 23 23 23 23 23 23 23 23 23 23 23 23 23 23 22 22 22 22 22 22
15 15 15 15 16 16 16 16 16 16 17 17 18 19 20 21 21 21 21 21 22 22 22 22 22 23 23 23 23 23 23 23 23 23 22 22 22 21 21 21 21 21 21 21